{"data":{"norad_id":85421,"epoch":"2026-06-24T07:33:48.979008Z","epoch_age_seconds":7633230,"freshness":"OLD","line1":"1 85421U          26175.31515022 -.00000034  00000+0  00000+0 0  9996","line2":"2 85421   0.0763 320.7214 0143872 137.4398 263.4745  1.03062781  1524","mean_motion":1.03062781,"eccentricity":0.0143872,"inclination_deg":0.0763,"raan_deg":320.7214,"arg_perigee_deg":137.4398,"mean_anomaly_deg":263.4745,"bstar":0,"rev_number":152,"period_min":1397.2066210789,"perigee_km":34426.257549622,"apogee_km":35617.518428669,"semimajor_km":41400.024989145,"source":"CELESTRAK","updated_at":"2026-07-24T09:00:47.687021Z"}}